Dewpoint
59 51 40 36 31 31 30 34 37 39 42 48 50 46 44 50 47 45 61 64 67 67 69 69 70 70 70 70 70 70 70 68 67 66 65 65 64 65 64 63 63 63 65 65 64 64 65 64 62
55 48 38 34 30 29 29 35 37 39 50 53 53 52 52 50 58 60 62 65 68 68 69 69 70 70 69 69 69 70 69 69 66 65 64 64 64 64 63 63 63 63 64 63 63 63 64 63 62
49 39 34 33 30 28 32 35 38 46 52 48 52 54 53 54 60 60 63 67 66 66 67 68 70 70 69 69 70 69 69 69 67 65 64 63 63 62 62 63 63 63 62 63 64 63 64 63 63
46 40 35 30 30 30 32 36 43 46 45 51 52 51 54 59 61 62 66 66 65 65 66 68 70 70 69 70 69 69 69 69 68 66 65 64 63 63 62 63 62 63 62 63 63 63 63 63 63
45 37 31 31 30 31 33 41 43 42 43 49 50 50 51 57 62 65 65 65 64 64 65 67 69 69 69 69 69 69 69 69 68 67 65 64 63 62 62 62 62 62 62 63 63 64 63 63 63
44 37 30 29 31 33 37 42 42 42 45 51 51 52 52 60 62 64 65 64 64 64 65 66 66 67 68 68 68 69 69 68 68 67 65 64 63 62 62 62 62 62 62 63 63 63 63 63 62
45 42 33 32 32 34 34 42 39 40 46 47 53 50 51 61 62 64 64 63 64 64 64 65 65 65 65 66 66 66 67 67 67 67 66 65 65 62 61 61 62 62 62 62 62 62 62 63 62
43 47 41 36 33 34 34 41 39 41 42 54 53 48 51 59 62 63 63 63 63 63 63 63 63 64 63 63 63 63 64 65 65 65 64 63 63 62 60 63 63 62 61 62 62 62 62 62 61
42 45 41 38 35 34 29 35 40 46 50 51 54 51 53 60 62 61 62 63 63 63 62 63 62 62 62 61 60 61 62 62 62 62 61 60 60 60 60 62 63 63 62 61 61 60 60 60 62
45 41 41 39 35 29 28 33 39 45 48 49 51 54 57 61 61 60 59 59 61 61 63 62 61 61 60 60 60 60 60 59 59 59 59 59 58 58 59 59 61 61 61 62 60 59 59 57 56
49 43 41 42 33 30 30 31 30 42 43 44 49 53 58 60 59 59 59 59 59 60 63 62 60 60 60 59 59 59 59 58 58 58 58 58 58 57 57 57 57 56 56 55 56 55 55 55 55
47 49 47 41 40 34 30 29 29 41 41 40 46 55 58 58 59 59 59 59 59 60 61 61 60 60 59 59 59 58 58 57 57 57 57 57 56 55 54 55 54 54 54 54 54 55 55 55 55
48 48 50 50 49 47 37 31 27 28 33 49 53 56 57 58 58 60 60 60 59 59 60 62 60 59 59 59 58 57 57 57 57 57 57 57 56 55 54 54 53 53 54 54 54 54 55 55 55
47 49 48 49 50 45 42 39 39 30 50 52 55 55 56 57 58 58 59 60 59 58 60 61 61 60 59 58 58 57 57 57 57 57 57 57 57 55 54 53 53 53 54 54 54 54 54 55 55
47 44 45 46 48 49 39 42 35 43 46 49 53 54 55 56 57 58 59 60 60 59 59 60 61 60 59 59 58 58 57 57 56 57 58 57 57 56 54 54 54 54 55 54 54 54 54 55 55
44 42 39 43 47 49 43 43 44 42 44 43 51 53 54 55 57 58 58 59 60 60 59 59 61 61 60 59 58 58 58 57 57 58 58 58 57 57 55 55 55 55 55 55 54 54 54 54 53
41 34 38 40 46 44 44 43 45 43 42 41 45 51 53 55 55 57 58 59 59 61 60 59 59 60 60 59 59 58 58 58 58 58 58 58 58 57 56 55 55 55 55 55 55 54 53 53 53
34 36 37 38 40 41 38 45 46 40 41 41 42 49 52 53 55 57 58 58 59 60 61 60 58 59 59 59 58 57 56 57 57 58 59 58 58 57 56 56 55 56 55 55 54 54 53 53 53
37 35 36 39 41 38 40 40 42 43 34 34 40 44 50 52 54 56 57 57 57 58 59 60 59 57 58 57 57 57 57 57 55 57 57 58 58 57 57 56 55 56 55 55 55 54 53 52 53
37 36 35 38 39 38 38 38 39 39 36 35 34 33 40 49 52 54 56 57 57 57 58 59 60 59 57 57 58 57 57 56 57 56 56 57 57 57 57 56 56 56 56 55 54 53 52 52 53
41 37 36 36 35 37 36 35 35 37 39 39 37 37 35 37 48 51 54 56 58 58 57 58 58 61 59 58 57 56 56 55 55 54 55 56 57 57 57 57 57 56 56 56 55 54 53 53 53
37 39 38 37 35 33 36 32 35 37 36 37 39 37 36 33 40 46 53 55 57 58 58 57 58 59 61 59 57 57 56 56 56 56 56 56 57 57 57 57 57 57 57 57 56 56 56 54 54
39 40 39 39 37 34 32 33 33 35 37 38 37 37 38 36 34 41 50 54 56 57 57 57 57 58 60 60 59 58 57 57 58 58 57 56 56 57 58 58 57 57 57 57 57 55 55 55 56
42 41 39 38 37 31 29 32 30 32 35 37 38 39 37 38 36 33 41 52 55 57 57 56 56 56 59 60 60 59 58 58 58 57 57 58 57 57 57 58 58 58 57 57 57 57 56 56 56
40 37 32 31 32 26 28 32 29 35 36 36 37 37 39 40 37 33 32 45 52 55 57 56 55 55 57 59 60 60 59 59 58 58 57 57 57 57 57 57 57 58 58 57 57 56 56 56 56
39 36 30 24 24 22 31 30 32 37 37 37 35 35 34 37 40 39 32 38 47 53 56 57 55 55 56 57 58 59 59 59 58 58 57 57 56 57 56 57 57 57 57 57 57 57 57 57 57
38 35 33 27 16 23 29 31 31 34 34 34 33 36 36 35 33 40 39 35 42 51 55 56 56 55 55 56 57 57 58 58 58 58 57 57 56 56 55 55 56 57 57 57 57 58 57 57 57
38 38 33 32 20 20 25 26 28 31 33 34 34 32 33 36 31 30 37 37 39 48 53 56 56 55 54 56 57 57 58 58 58 57 57 56 56 55 55 55 56 56 57 57 57 58 58 58 57
37 35 35 31 27 23 20 20 29 31 31 34 34 34 34 36 32 28 27 33 37 43 51 55 56 55 54 54 55 56 57 57 57 57 56 56 55 54 55 55 56 56 57 57 58 58 58 57 57
36 34 34 29 27 27 25 23 29 30 32 28 33 31 30 31 28 25 25 26 32 36 47 51 53 55 54 53 53 54 55 54 54 55 56 53 54 54 55 56 57 57 57 58 58 58 58 57 56
Lifted_Index
3 5 6 6 4 4 3 3 4 4 4 4 4 4 4 4 3 3 2 1 -0 -1 -2 -3 -3 -3 -3 -2 -2 -2 -2 -1 -0 1 1 1 2 2 3 3 3 3 3 3 4 4 4 4 5
3 4 6 5 4 4 4 4 4 4 4 4 4 4 4 4 3 2 1 1 -0 -1 -2 -3 -3 -3 -2 -2 -2 -2 -2 -1 0 1 1 2 2 3 3 3 3 4 4 4 4 4 4 4 5
3 4 5 4 4 4 4 4 4 4 4 4 4 4 4 3 3 2 1 1 -0 -1 -1 -2 -3 -3 -2 -2 -2 -2 -1 -1 0 1 2 2 3 3 3 3 4 4 4 4 4 4 4 5 5
3 4 4 3 4 4 4 4 4 4 4 4 4 4 3 3 3 2 2 1 1 1 -0 -1 -2 -2 -2 -2 -2 -1 -1 -0 0 1 2 2 3 3 4 4 4 4 4 4 4 4 4 5 5
3 3 3 3 3 4 4 4 4 4 4 4 4 4 3 3 3 2 2 2 2 2 1 0 -1 -1 -1 -1 -1 -1 -1 -0 0 1 2 2 3 4 4 4 4 4 4 4 4 4 4 5 5
2 2 2 2 3 4 4 4 4 4 4 4 4 4 3 3 3 2 2 3 3 3 2 1 1 1 1 1 0 0 0 0 1 1 2 3 3 4 4 4 4 4 4 4 4 4 4 5 5
2 2 2 2 3 3 4 4 4 4 4 4 4 4 4 3 3 3 3 3 3 4 3 3 2 2 2 2 2 2 2 2 1 2 2 3 3 4 4 4 4 4 5 5 5 5 5 5 5
2 2 2 2 2 3 4 4 4 4 4 4 4 4 4 4 3 3 3 3 4 4 4 4 3 3 3 3 4 4 3 3 3 3 3 4 4 4 5 4 4 5 5 5 5 6 6 5 5
3 2 2 2 2 3 4 4 4 4 4 4 4 4 4 3 3 3 3 4 4 4 4 4 4 4 4 5 5 5 5 5 5 5 5 5 5 5 5 5 5 5 5 6 6 6 6 6 6
3 2 2 2 3 3 4 4 5 4 4 4 4 4 4 3 3 3 3 4 4 4 4 4 5 5 5 5 6 6 6 6 6 6 6 6 6 6 6 6 6 6 7 7 7 7 7 7 6
2 2 2 3 3 3 4 4 5 5 4 4 4 4 3 3 3 3 4 4 4 4 4 4 5 5 5 6 6 6 6 7 7 7 7 7 7 7 7 7 8 8 8 7 7 7 7 7 7
2 2 2 3 3 3 3 4 5 5 5 5 5 4 3 3 3 3 4 4 4 4 4 4 5 5 6 6 6 6 7 7 7 7 7 7 7 8 8 8 8 8 8 8 7 7 7 7 7
1 2 2 2 3 3 3 4 4 5 5 5 5 4 3 3 3 3 3 4 4 4 4 4 4 5 5 6 6 6 7 7 7 7 7 7 7 8 9 9 9 9 8 8 7 7 7 7 6
2 2 2 2 2 3 3 3 4 5 5 5 5 4 3 3 3 3 3 3 4 4 4 4 4 4 5 6 6 6 6 7 7 7 7 7 7 8 9 9 9 9 8 7 7 7 7 6 6
2 3 3 3 3 2 2 3 3 4 4 5 4 4 3 3 3 3 3 3 3 4 4 3 4 4 4 5 6 6 6 7 7 7 7 7 6 7 8 9 8 8 8 7 7 6 6 6 6
3 3 4 4 3 3 3 3 2 3 3 4 4 4 4 3 3 3 3 3 3 3 3 3 3 3 4 5 5 6 6 6 7 7 7 6 6 6 7 7 7 7 7 6 6 6 5 5 5
3 4 4 4 4 3 3 2 2 2 2 3 4 4 4 4 4 3 3 3 3 3 3 3 3 3 3 4 5 5 6 6 7 7 6 6 5 5 6 6 6 6 6 6 5 5 5 5 5
4 4 5 4 4 3 3 2 2 2 2 3 3 4 4 4 4 4 4 3 3 3 3 3 3 2 3 3 4 4 5 6 6 6 6 5 5 4 5 5 6 6 6 5 5 5 5 5 5
4 4 5 4 4 4 3 3 3 3 2 3 3 3 3 3 4 4 4 4 3 3 3 2 2 2 2 3 3 4 4 5 6 6 5 5 4 4 4 5 5 5 5 5 4 4 4 5 5
3 4 4 4 4 4 4 4 4 4 3 3 2 3 3 3 3 4 4 4 4 3 3 2 2 2 2 2 3 3 4 4 5 5 5 5 5 4 4 4 5 5 5 4 4 4 4 4 5
2 3 3 4 4 4 4 5 5 5 5 4 3 2 2 2 3 4 4 4 4 4 3 3 3 2 2 2 2 3 3 3 3 4 4 5 5 5 5 5 5 5 4 4 4 4 4 4 4
2 3 3 3 3 4 4 4 5 5 5 5 3 2 2 2 3 3 3 4 4 4 4 3 3 3 2 2 2 3 3 3 3 3 4 4 4 5 5 5 5 5 4 4 4 4 4 4 4
2 2 2 2 3 3 4 4 4 5 5 5 4 3 2 2 2 3 3 3 4 4 4 4 4 3 3 2 3 3 3 3 3 3 3 3 4 4 4 5 5 5 4 4 4 4 4 4 3
1 1 2 2 2 3 4 5 5 5 5 5 4 3 3 3 3 3 3 3 4 5 5 5 4 3 3 2 2 2 2 2 2 2 2 2 3 4 4 4 4 4 4 4 4 4 4 3 3
1 1 1 1 1 2 4 5 5 5 5 5 5 4 3 3 3 3 3 3 4 5 5 5 4 3 3 2 2 2 2 2 2 2 2 2 2 3 4 4 4 5 5 5 4 4 3 3 3
1 1 1 1 1 2 4 4 6 6 6 5 5 4 4 4 3 3 3 4 4 5 5 5 4 3 3 3 2 2 2 2 2 2 2 2 2 3 4 4 5 5 4 4 4 4 3 3 2
1 1 1 1 1 2 3 4 5 6 5 5 4 4 4 4 3 3 4 4 4 4 4 4 4 4 4 3 3 3 3 3 3 3 3 3 3 3 3 4 4 4 4 3 3 3 2 2 2
1 1 1 1 1 1 2 3 5 6 5 4 4 4 3 3 3 4 4 4 4 4 4 4 4 4 4 4 3 3 3 3 3 3 3 3 3 3 3 3 3 3 2 2 2 2 1 1 1
1 1 1 1 1 1 2 3 5 6 5 4 4 3 3 3 3 4 4 4 5 4 4 4 4 4 4 4 4 4 3 3 3 3 3 3 3 3 2 2 2 2 2 1 1 1 0 0 -0
1 1 1 1 2 3 3 4 6 6 5 5 4 3 3 3 4 4 5 5 5 5 5 4 4 4 4 4 4 4 4 3 3 3 3 3 2 2 2 2 1 1 2 1 1 0 -0 -1 -1